| time (UTC) | temp C | wind direction | speed KPH | gust KPH | rain 1hr cm | rain 24hr cm | rain mn cm | humidity % | barometer mb |
| 20260507051022 | 17 | 221 | 9.7 | 35.4 | 0.00 | 0.00 | 0.00 | 31 | 1014.0 |
| 20260507050524 | 17 | 184 | 9.7 | 35.4 | 0.00 | 0.00 | 0.00 | 30 | 1013.8 |
| 20260507050030 | 17 | 162 | 12.9 | 35.4 | 0.00 | 0.00 | 0.00 | 31 | 1013.7 |
| 20260507045524 | 17 | 260 | 12.9 | 35.4 | 0.00 | 0.00 | 0.00 | 30 | 1013.6 |
| 20260507045023 | 17 | 270 | 9.7 | 37.0 | 0.00 | 0.00 | 0.00 | 31 | 1013.6 |
| 20260507044538 | 17 | 290 | 16.1 | 40.2 | 0.00 | 0.00 | 0.00 | 31 | 1013.3 |
| 20260507044020 | 17 | 260 | 12.9 | 40.2 | 0.00 | 0.00 | 0.00 | 33 | 1013.3 |
| 20260507043519 | 17 | 224 | 11.3 | 29.0 | 0.00 | 0.00 | 0.00 | 33 | 1013.3 |
| 20260507043019 | 17 | 211 | 9.7 | 33.8 | 0.00 | 0.00 | 0.00 | 33 | 1013.3 |
| 20260507042520 | 17 | 193 | 11.3 | 33.8 | 0.00 | 0.00 | 0.00 | 32 | 1013.2 |
| 20260507042018 | 17 | 277 | 12.9 | 37.0 | 0.00 | 0.00 | 0.00 | 32 | 1013.0 |
| 20260507041517 | 17 | 210 | 12.9 | 38.6 | 0.00 | 0.00 | 0.00 | 32 | 1012.8 |
| 20260507041016 | 17 | 246 | 14.5 | 41.8 | 0.00 | 0.00 | 0.00 | 32 | 1012.9 |
| 20260507040515 | 17 | 263 | 12.9 | 25.7 | 0.00 | 0.00 | 0.00 | 35 | 1012.7 |
| 20260507040014 | 17 | 163 | 9.7 | 32.2 | 0.00 | 0.00 | 0.00 | 38 | 1012.7 |
| 20260507035512 | 18 | 79 | 11.3 | 29.0 | 0.00 | 0.00 | 0.00 | 39 | 1012.7 |
| 20260507035012 | 18 | 236 | 12.9 | 27.4 | 0.00 | 0.00 | 0.00 | 39 | 1012.5 |
| 20260507034511 | 18 | 229 | 11.3 | 33.8 | 0.00 | 0.00 | 0.00 | 37 | 1012.5 |
| 20260507034009 | 18 | 252 | 17.7 | 35.4 | 0.00 | 0.00 | 0.00 | 37 | 1012.4 |
| 20260507033508 | 18 | 246 | 14.5 | 35.4 | 0.00 | 0.00 | 0.00 | 40 | 1012.3 |
| 20260507033009 | 18 | 189 | 12.9 | 27.4 | 0.00 | 0.00 | 0.00 | 47 | 1012.4 |
| 20260507032505 | 18 | 238 | 8.0 | 22.5 | 0.00 | 0.00 | 0.00 | 52 | 1012.3 |
| 20260507032006 | 17 | 222 | 4.8 | 22.5 | 0.00 | 0.00 | 0.00 | 54 | 1012.3 |
| 20260507031504 | 17 | 196 | 8.0 | 27.4 | 0.00 | 0.00 | 0.00 | 53 | 1012.4 |
| 20260507031003 | 17 | 203 | 11.3 | 32.2 | 0.00 | 0.00 | 0.00 | 53 | 1012.4 |
| 20260507030502 | 17 | 236 | 12.9 | 27.4 | 0.00 | 0.00 | 0.00 | 54 | 1012.2 |
| 20260507030000 | 17 | 229 | 4.8 | 12.9 | 0.00 | 0.00 | 0.00 | 57 | 1012.3 |
| 20260507025559 | 17 | 244 | 6.4 | 14.5 | 0.00 | 0.00 | 0.00 | 58 | 1012.3 |
| 20260507025102 | 17 | 271 | 6.4 | 17.7 | 0.00 | 0.00 | 0.00 | 59 | 1012.2 |
| 20260507024617 | 17 | 292 | 8.0 | 17.7 | 0.00 | 0.00 | 0.00 | 60 | 1012.2 |
| 20260507024102 | 17 | 241 | 8.0 | 22.5 | 0.00 | 0.00 | 0.00 | 60 | 1012.3 |
| 20260507023601 | 17 | 284 | 12.9 | 22.5 | 0.00 | 0.00 | 0.00 | 59 | 1012.4 |
| 20260507023058 | 17 | 320 | 11.3 | 24.1 | 0.00 | 0.00 | 0.00 | 60 | 1012.4 |
| 20260507022558 | 17 | 240 | 14.5 | 25.7 | 0.00 | 0.00 | 0.00 | 59 | 1012.7 |
| 20260507022058 | 17 | 260 | 11.3 | 25.7 | 0.00 | 0.00 | 0.00 | 60 | 1012.6 |
| 20260507021616 | 17 | 288 | 12.9 | 25.7 | 0.00 | 0.00 | 0.00 | 60 | 1012.7 |
| 20260507021055 | 17 | 317 | 11.3 | 24.1 | 0.00 | 0.00 | 0.00 | 61 | 1012.8 |
| 20260507020554 | 17 | 233 | 8.0 | 17.7 | 0.00 | 0.00 | 0.00 | 62 | 1012.9 |
| 20260507020104 | 17 | 252 | 9.7 | 24.1 | 0.00 | 0.00 | 0.00 | 62 | 1013.0 |
| 20260507015555 | 16 | 279 | 8.0 | 24.1 | 0.00 | 0.00 | 0.00 | 61 | 1013.2 |
| 20260507015056 | 16 | 270 | 6.4 | 16.1 | 0.00 | 0.00 | 0.00 | 63 | 1013.3 |
| 20260507014611 | 16 | 242 | 6.4 | 17.7 | 0.00 | 0.00 | 0.00 | 63 | 1013.4 |
| 20260507014053 | 16 | 329 | 6.4 | 24.1 | 0.00 | 0.00 | 0.00 | 63 | 1013.4 |
| 20260507013552 | 16 | 238 | 12.9 | 25.7 | 0.00 | 0.00 | 0.00 | 63 | 1013.6 |
| 20260507013055 | 16 | 297 | 14.5 | 25.7 | 0.00 | 0.00 | 0.00 | 63 | 1013.7 |
| 20260507012554 | 16 | 280 | 12.9 | 29.0 | 0.00 | 0.00 | 0.00 | 63 | 1013.8 |
| 20260507012052 | 16 | 281 | 14.5 | 29.0 | 0.00 | 0.00 | 0.00 | 62 | 1013.8 |
| 20260507011552 | 16 | 244 | 9.7 | 35.4 | 0.00 | 0.00 | 0.00 | 62 | 1013.9 |
| 20260507011050 | 17 | 250 | 14.5 | 27.4 | 0.00 | 0.00 | 0.00 | 61 | 1013.8 |
| 20260507010555 | 17 | 279 | 12.9 | 29.0 | 0.00 | 0.00 | 0.00 | 60 | 1013.9 |
| 20260507005549 | 16 | 244 | 11.3 | 30.6 | 0.00 | 0.00 | 0.00 | 62 | 1014.0 |
| 20260507005047 | 16 | 254 | 14.5 | 29.0 | 0.00 | 0.00 | 0.00 | 61 | 1014.0 |
| 20260507004548 | 16 | 238 | 16.1 | 32.2 | 0.00 | 0.00 | 0.00 | 62 | 1014.0 |
| 20260507004047 | 16 | 265 | 12.9 | 32.2 | 0.00 | 0.00 | 0.00 | 62 | 1014.0 |
| 20260507003546 | 16 | 228 | 12.9 | 27.4 | 0.00 | 0.00 | 0.00 | 62 | 1014.0 |
| 20260507003044 | 16 | 268 | 9.7 | 25.7 | 0.00 | 0.00 | 0.00 | 64 | 1014.0 |
| 20260507002544 | 16 | 224 | 11.3 | 27.4 | 0.00 | 0.00 | 0.00 | 63 | 1014.2 |
| 20260507002045 | 16 | 223 | 16.1 | 30.6 | 0.00 | 0.00 | 0.00 | 63 | 1014.2 |
| 20260507001548 | 16 | 298 | 14.5 | 30.6 | 0.00 | 0.00 | 0.00 | 63 | 1014.2 |
| 20260507001043 | 16 | 248 | 16.1 | 25.7 | 0.00 | 0.00 | 0.00 | 63 | 1014.2 |
| 20260507000543 | 16 | 264 | 8.0 | 29.0 | 0.00 | 0.00 | 0.00 | 65 | 1014.3 |
| 20260507000044 | 16 | 251 | 12.9 | 29.0 | 0.00 | 0.00 | 0.00 | 65 | 1014.3 |
| 20260506235542 | 15 | 237 | 9.7 | 22.5 | 0.00 | 0.00 | 0.00 | 65 | 1014.3 |
| 20260506235040 | 15 | 240 | 8.0 | 25.7 | 0.00 | 0.00 | 0.00 | 66 | 1014.4 |
| 20260506234541 | 15 | 247 | 12.9 | 25.7 | 0.00 | 0.00 | 0.00 | 65 | 1014.5 |
| 20260506234041 | 15 | 293 | 9.7 | 22.5 | 0.00 | 0.00 | 0.00 | 67 | 1014.5 |
| 20260506233540 | 15 | 244 | 12.9 | 22.5 | 0.00 | 0.00 | 0.00 | 66 | 1014.3 |
| 20260506233040 | 15 | 246 | 8.0 | 17.7 | 0.00 | 0.00 | 0.00 | 68 | 1014.4 |
| 20260506232539 | 15 | 244 | 8.0 | 22.5 | 0.00 | 0.00 | 0.00 | 67 | 1014.4 |
| 20260506232040 | 15 | 244 | 11.3 | 22.5 | 0.00 | 0.00 | 0.00 | 66 | 1014.4 |
| 20260506231539 | 15 | 288 | 9.7 | 24.1 | 0.00 | 0.00 | 0.00 | 67 | 1014.5 |
| 20260506231042 | 15 | 244 | 9.7 | 24.1 | 0.00 | 0.00 | 0.00 | 67 | 1014.5 |
| 20260506230539 | 15 | 257 | 9.7 | 29.0 | 0.00 | 0.00 | 0.00 | 67 | 1014.5 |
| 20260506230037 | 15 | 213 | 14.5 | 29.0 | 0.00 | 0.00 | 0.00 | 67 | 1014.4 |
| 20260506225538 | 15 | 234 | 12.9 | 25.7 | 0.00 | 0.00 | 0.00 | 68 | 1014.4 |
| 20260506225036 | 15 | 280 | 8.0 | 24.1 | 0.00 | 0.00 | 0.00 | 69 | 1014.4 |
| 20260506224537 | 15 | 251 | 11.3 | 24.1 | 0.00 | 0.00 | 0.00 | 70 | 1014.3 |
| 20260506224035 | 14 | 255 | 12.9 | 20.9 | 0.00 | 0.00 | 0.00 | 71 | 1014.4 |
| 20260506223535 | 14 | 243 | 9.7 | 22.5 | 0.00 | 0.00 | 0.00 | 71 | 1014.4 |
| 20260506223037 | 14 | 259 | 11.3 | 22.5 | 0.00 | 0.00 | 0.00 | 72 | 1014.4 |
| 20260506222535 | 14 | 239 | 4.8 | 19.3 | 0.00 | 0.00 | 0.00 | 73 | 1014.4 |
| 20260506222035 | 14 | 271 | 6.4 | 19.3 | 0.00 | 0.00 | 0.00 | 74 | 1014.4 |
| 20260506221534 | 13 | 232 | 6.4 | 22.5 | 0.00 | 0.00 | 0.00 | 74 | 1014.4 |
| 20260506221034 | 13 | 262 | 8.0 | 24.1 | 0.00 | 0.00 | 0.00 | 75 | 1014.3 |
| 20260506220532 | 13 | 247 | 9.7 | 24.1 | 0.00 | 0.00 | 0.00 | 76 | 1014.4 |
| 20260506220036 | 13 | 262 | 11.3 | 22.5 | 0.00 | 0.00 | 0.00 | 77 | 1014.3 |
| 20260506215529 | 13 | 234 | 9.7 | 22.5 | 0.00 | 0.00 | 0.00 | 77 | 1014.2 |
| 20260506215029 | 13 | 296 | 9.7 | 19.3 | 0.00 | 0.00 | 0.00 | 78 | 1014.2 |
| 20260506214528 | 13 | 227 | 6.4 | 22.5 | 0.00 | 0.00 | 0.00 | 79 | 1014.1 |
| 20260506214028 | 13 | 229 | 9.7 | 22.5 | 0.00 | 0.00 | 0.00 | 78 | 1014.1 |
| 20260506213526 | 13 | 233 | 9.7 | 19.3 | 0.00 | 0.00 | 0.00 | 79 | 1014.1 |
| 20260506213026 | 13 | 230 | 8.0 | 24.1 | 0.00 | 0.00 | 0.00 | 79 | 1013.9 |
| 20260506212525 | 13 | 360 | 12.9 | 25.7 | 0.00 | 0.00 | 0.00 | 79 | 1013.8 |
| 20260506212024 | 13 | 230 | 14.5 | 25.7 | 0.00 | 0.00 | 0.00 | 81 | 1013.7 |
| 20260506211522 | 13 | 221 | 11.3 | 20.9 | 0.00 | 0.00 | 0.00 | 82 | 1013.6 |
| 20260506211020 | 13 | 239 | 8.0 | 22.5 | 0.00 | 0.00 | 0.00 | 84 | 1013.6 |
| 20260506210522 | 12 | 275 | 12.9 | 22.5 | 0.00 | 0.00 | 0.00 | 86 | 1013.5 |
| 20260506210019 | 12 | 263 | 9.7 | 17.7 | 0.00 | 0.00 | 0.00 | 86 | 1013.6 |
| 20260506205516 | 12 | 294 | 4.8 | 11.3 | 0.00 | 0.00 | 0.00 | 86 | 1013.6 |
| 20260506205014 | 12 | 281 | 3.2 | 9.7 | 0.00 | 0.00 | 0.00 | 86 | 1013.6 |
| 20260506204512 | 12 | 284 | 3.2 | 9.7 | 0.00 | 0.00 | 0.00 | 86 | 1013.5 |
| 20260506204010 | 12 | 273 | 4.8 | 14.5 | 0.00 | 0.00 | 0.00 | 86 | 1013.4 |
| 20260506203510 | 12 | 294 | 6.4 | 16.1 | 0.00 | 0.00 | 0.00 | 86 | 1013.3 |
| 20260506203010 | 12 | 264 | 6.4 | 16.1 | 0.00 | 0.00 | 0.00 | 86 | 1013.2 |
| 20260506202511 | 12 | 287 | 3.2 | 14.5 | 0.00 | 0.00 | 0.00 | 87 | 1013.0 |
| 20260506202007 | 12 | 302 | 4.8 | 14.5 | 0.00 | 0.00 | 0.00 | 87 | 1012.9 |
| 20260506201509 | 12 | 257 | 4.8 | 14.5 | 0.00 | 0.00 | 0.00 | 88 | 1013.1 |
| 20260506201006 | 12 | 263 | 4.8 | 16.1 | 0.00 | 0.00 | 0.00 | 89 | 1013.1 |
| 20260506200505 | 11 | 239 | 4.8 | 16.1 | 0.00 | 0.00 | 0.00 | 89 | 1012.9 |
| 20260506200008 | 11 | 294 | 0.0 | 4.8 | 0.00 | 0.00 | 0.00 | 89 | 1012.8 |
| 20260506195504 | 11 | 45 | 0.0 | 3.2 | 0.00 | 0.00 | 0.00 | 88 | 1012.7 |
| 20260506195003 | 12 | 45 | 1.6 | 6.4 | 0.00 | 0.00 | 0.00 | 88 | 1012.7 |
| 20260506194502 | 12 | 323 | 0.0 | 6.4 | 0.00 | 0.00 | 0.00 | 88 | 1012.6 |
| 20260506194001 | 12 | 299 | 0.0 | 11.3 | 0.00 | 0.00 | 0.00 | 88 | 1012.7 |
| 20260506193501 | 12 | 306 | 3.2 | 11.3 | 0.00 | 0.00 | 0.00 | 88 | 1012.6 |
| 20260506193002 | 12 | 289 | 3.2 | 11.3 | 0.00 | 0.00 | 0.00 | 88 | 1012.5 |
| 20260506192600 | 12 | 273 | 4.8 | 11.3 | 0.00 | 0.00 | 0.00 | 89 | 1012.4 |
| 20260506192100 | 12 | 277 | 4.8 | 12.9 | 0.00 | 0.00 | 0.00 | 89 | 1012.3 |
| 20260506191600 | 12 | 296 | 4.8 | 12.9 | 0.00 | 0.00 | 0.00 | 89 | 1012.4 |
| 20260506191058 | 12 | 252 | 3.2 | 12.9 | 0.00 | 0.00 | 0.00 | 89 | 1012.2 |
| 20260506190559 | 12 | 265 | 3.2 | 12.9 | 0.00 | 0.00 | 0.00 | 89 | 1012.3 |
| 20260506190057 | 12 | 273 | 6.4 | 12.9 | 0.00 | 0.00 | 0.00 | 90 | 1012.4 |
| 20260506185555 | 12 | 271 | 3.2 | 14.5 | 0.00 | 0.00 | 0.00 | 90 | 1012.4 |
| 20260506185055 | 12 | 293 | 6.4 | 16.1 | 0.00 | 0.00 | 0.00 | 90 | 1012.5 |
| 20260506184558 | 12 | 281 | 8.0 | 16.1 | 0.00 | 0.00 | 0.00 | 90 | 1012.6 |
| 20260506184055 | 13 | 290 | 8.0 | 16.1 | 0.00 | 0.00 | 0.00 | 90 | 1012.5 |
| 20260506183555 | 13 | 253 | 6.4 | 14.5 | 0.00 | 0.00 | 0.00 | 91 | 1012.5 |
| 20260506183053 | 13 | 284 | 3.2 | 14.5 | 0.00 | 0.00 | 0.00 | 91 | 1012.5 |
| 20260506182554 | 13 | 295 | 4.8 | 14.5 | 0.00 | 0.00 | 0.00 | 92 | 1012.5 |
| 20260506182049 | 13 | 277 | 4.8 | 14.5 | 0.00 | 0.00 | 0.00 | 92 | 1012.5 |
| 20260506181549 | 13 | 275 | 6.4 | 14.5 | 0.00 | 0.00 | 0.00 | 92 | 1012.5 |
| 20260506181046 | 13 | 250 | 4.8 | 17.7 | 0.00 | 0.00 | 0.00 | 92 | 1012.5 |
| 20260506180545 | 14 | 265 | 8.0 | 17.7 | 0.00 | 0.00 | 0.00 | 92 | 1012.5 |
| 20260506180045 | 14 | 246 | 9.7 | 17.7 | 0.00 | 0.00 | 0.00 | 92 | 1012.4 |
| 20260506175544 | 14 | 271 | 11.3 | 17.7 | 0.00 | 0.00 | 0.00 | 93 | 1012.4 |
| 20260506175042 | 14 | 268 | 8.0 | 16.1 | 0.00 | 0.00 | 0.00 | 92 | 1012.4 |
| 20260506174542 | 14 | 302 | 8.0 | 16.1 | 0.00 | 0.00 | 0.00 | 92 | 1012.4 |
| 20260506174043 | 15 | 259 | 8.0 | 17.7 | 0.00 | 0.00 | 0.00 | 92 | 1012.4 |
| 20260506173542 | 15 | 248 | 8.0 | 17.7 | 0.00 | 0.00 | 0.00 | 92 | 1012.3 |
| 20260506173048 | 15 | 259 | 9.7 | 16.1 | 0.00 | 0.00 | 0.00 | 92 | 1012.4 |
| 20260506172537 | 15 | 290 | 8.0 | 16.1 | 0.00 | 0.00 | 0.00 | 91 | 1012.4 |
| 20260506172036 | 15 | 286 | 8.0 | 16.1 | 0.00 | 0.00 | 0.00 | 91 | 1012.4 |
| 20260506171549 | 15 | 252 | 9.7 | 16.1 | 0.00 | 0.00 | 0.00 | 91 | 1012.4 |
| 20260506171035 | 15 | 284 | 8.0 | 16.1 | 0.00 | 0.00 | 0.00 | 91 | 1012.4 |
| 20260506170533 | 15 | 257 | 6.4 | 19.3 | 0.00 | 0.00 | 0.00 | 91 | 1012.5 |
| 20260506170033 | 15 | 220 | 9.7 | 19.3 | 0.00 | 0.00 | 0.00 | 91 | 1012.6 |
| 20260506165536 | 16 | 288 | 8.0 | 14.5 | 0.00 | 0.00 | 0.00 | 90 | 1012.6 |
| 20260506165033 | 16 | 258 | 8.0 | 16.1 | 0.00 | 0.00 | 0.00 | 90 | 1012.7 |
| 20260506164532 | 16 | 297 | 9.7 | 16.1 | 0.00 | 0.00 | 0.00 | 89 | 1012.7 |
| 20260506164031 | 16 | 277 | 9.7 | 19.3 | 0.00 | 0.00 | 0.00 | 89 | 1012.7 |
| 20260506163532 | 16 | 261 | 9.7 | 19.3 | 0.00 | 0.00 | 0.00 | 89 | 1012.7 |
| 20260506163046 | 16 | 239 | 9.7 | 17.7 | 0.00 | 0.00 | 0.00 | 89 | 1012.8 |
| 20260506162532 | 16 | 301 | 6.4 | 16.1 | 0.00 | 0.00 | 0.00 | 90 | 1012.8 |
| 20260506162033 | 16 | 253 | 8.0 | 16.1 | 0.00 | 0.00 | 0.00 | 90 | 1012.8 |
| 20260506161530 | 16 | 247 | 6.4 | 14.5 | 0.00 | 0.00 | 0.00 | 90 | 1012.9 |
| 20260506161027 | 16 | 260 | 4.8 | 14.5 | 0.00 | 0.00 | 0.00 | 91 | 1012.9 |
| 20260506160527 | 16 | 233 | 8.0 | 12.9 | 0.00 | 0.00 | 0.00 | 92 | 1012.9 |
| 20260506160027 | 16 | 260 | 3.2 | 8.0 | 0.00 | 0.00 | 0.00 | 92 | 1013.0 |
| 20260506155524 | 15 | 256 | 0.0 | 8.0 | 0.00 | 0.00 | 0.00 | 92 | 1013.1 |
| 20260506155025 | 15 | 277 | 0.0 | 3.2 | 0.00 | 0.00 | 0.00 | 91 | 1013.0 |
| 20260506154531 | 16 | 268 | 1.6 | 4.8 | 0.00 | 0.00 | 0.00 | 91 | 1013.0 |
| 20260506154026 | 16 | 293 | 0.0 | 6.4 | 0.00 | 0.00 | 0.00 | 91 | 1013.0 |
| 20260506153524 | 16 | 275 | 1.6 | 12.9 | 0.00 | 0.00 | 0.00 | 91 | 1013.0 |
| 20260506153023 | 16 | 254 | 0.0 | 12.9 | 0.00 | 0.00 | 0.00 | 91 | 1013.1 |
| 20260506152525 | 16 | 240 | 3.2 | 12.9 | 0.00 | 0.00 | 0.00 | 92 | 1013.1 |
| 20260506152022 | 16 | 257 | 4.8 | 11.3 | 0.00 | 0.00 | 0.00 | 92 | 1013.1 |
| 20260506151522 | 15 | 283 | 3.2 | 6.4 | 0.00 | 0.00 | 0.00 | 92 | 1013.2 |
| 20260506151024 | 16 | 301 | 3.2 | 8.0 | 0.00 | 0.00 | 0.00 | 92 | 1013.2 |
| 20260506150520 | 16 | 287 | 3.2 | 8.0 | 0.00 | 0.00 | 0.00 | 92 | 1013.2 |
| 20260506150020 | 16 | 277 | 3.2 | 6.4 | 0.00 | 0.00 | 0.00 | 92 | 1013.2 |
| 20260506145520 | 16 | 293 | 3.2 | 6.4 | 0.00 | 0.00 | 0.00 | 92 | 1013.2 |
| 20260506145019 | 16 | 320 | 3.2 | 8.0 | 0.00 | 0.00 | 0.00 | 92 | 1013.3 |
| 20260506144518 | 16 | 289 | 3.2 | 8.0 | 0.00 | 0.00 | 0.00 | 93 | 1013.3 |
| 20260506144018 | 16 | 296 | 3.2 | 9.7 | 0.00 | 0.00 | 0.00 | 93 | 1013.4 |
| 20260506143519 | 16 | 284 | 1.6 | 8.0 | 0.00 | 0.00 | 0.00 | 93 | 1013.4 |
| 20260506143018 | 16 | 279 | 1.6 | 8.0 | 0.00 | 0.00 | 0.00 | 93 | 1013.4 |
| 20260506142515 | 15 | 297 | 3.2 | 8.0 | 0.00 | 0.00 | 0.00 | 93 | 1013.4 |
| 20260506142016 | 15 | 297 | 3.2 | 6.4 | 0.00 | 0.00 | 0.00 | 93 | 1013.5 |
| 20260506141515 | 15 | 271 | 0.0 | 4.8 | 0.00 | 0.00 | 0.00 | 93 | 1013.6 |
| 20260506141016 | 15 | 276 | 1.6 | 4.8 | 0.00 | 0.00 | 0.00 | 93 | 1013.6 |
| 20260506140520 | 15 | 269 | 0.0 | 1.6 | 0.00 | 0.00 | 0.00 | 92 | 1013.6 |
| 20260506140012 | 15 | 269 | 0.0 | 3.2 | 0.00 | 0.00 | 0.00 | 92 | 1013.6 |
| 20260506135511 | 15 | 269 | 0.0 | 3.2 | 0.00 | 0.00 | 0.00 | 92 | 1013.7 |
| 20260506135012 | 15 | 269 | 0.0 | 3.2 | 0.00 | 0.00 | 0.00 | 92 | 1013.7 |
| 20260506134513 | 15 | 268 | 0.0 | 3.2 | 0.00 | 0.00 | 0.00 | 91 | 1013.7 |
| 20260506134011 | 15 | 265 | 0.0 | 3.2 | 0.00 | 0.00 | 0.00 | 91 | 1013.7 |
| 20260506133511 | 15 | 264 | 0.0 | 0.0 | 0.00 | 0.00 | 0.00 | 91 | 1013.8 |
| 20260506133011 | 15 | 264 | 0.0 | 1.6 | 0.00 | 0.00 | 0.00 | 91 | 1013.8 |
| 20260506132509 | 16 | 264 | 0.0 | 1.6 | 0.00 | 0.00 | 0.00 | 91 | 1013.8 |
| 20260506132013 | 16 | 264 | 0.0 | 1.6 | 0.00 | 0.00 | 0.00 | 91 | 1013.9 |
| 20260506131510 | 16 | 264 | 0.0 | 1.6 | 0.00 | 0.00 | 0.00 | 91 | 1013.9 |
| 20260506131008 | 16 | 264 | 0.0 | 1.6 | 0.00 | 0.00 | 0.00 | 91 | 1013.9 |
| 20260506130511 | 16 | 264 | 0.0 | 1.6 | 0.00 | 0.00 | 0.00 | 91 | 1014.0 |
| 20260506130008 | 16 | 264 | 0.0 | 3.2 | 0.00 | 0.00 | 0.00 | 91 | 1014.1 |
| 20260506125505 | 16 | 264 | 0.0 | 3.2 | 0.00 | 0.00 | 0.00 | 92 | 1014.2 |
| 20260506125009 | 16 | 264 | 0.0 | 3.2 | 0.00 | 0.00 | 0.00 | 92 | 1014.3 |
| 20260506124505 | 16 | 262 | 0.0 | 0.0 | 0.00 | 0.00 | 0.00 | 91 | 1014.4 |
| 20260506124004 | 16 | 262 | 0.0 | 0.0 | 0.00 | 0.00 | 0.00 | 91 | 1014.4 |
| 20260506123504 | 16 | 262 | 0.0 | 3.2 | 0.00 | 0.00 | 0.00 | 91 | 1014.5 |
| 20260506123004 | 16 | 262 | 0.0 | 3.2 | 0.00 | 0.00 | 0.00 | 90 | 1014.6 |
| 20260506122505 | 16 | 262 | 0.0 | 1.6 | 0.00 | 0.00 | 0.00 | 90 | 1014.6 |
| 20260506122001 | 16 | 262 | 0.0 | 1.6 | 0.00 | 0.00 | 0.00 | 89 | 1014.7 |
| 20260506121500 | 16 | 262 | 0.0 | 4.8 | 0.00 | 0.00 | 0.00 | 88 | 1014.8 |
| 20260506121100 | 16 | 262 | 1.6 | 4.8 | 0.00 | 0.00 | 0.00 | 88 | 1014.8 |
| 20260506120600 | 16 | 298 | 0.0 | 0.0 | 0.00 | 0.00 | 0.00 | 88 | 1014.9 |
| 20260506120111 | 16 | 298 | 0.0 | 0.0 | 0.00 | 0.00 | 0.00 | 88 | 1014.9 |
| 20260506115600 | 16 | 298 | 0.0 | 0.0 | 0.00 | 0.00 | 0.00 | 88 | 1014.9 |
| 20260506115058 | 16 | 298 | 0.0 | 0.0 | 0.00 | 0.00 | 0.00 | 88 | 1015.0 |
| 20260506114623 | 16 | 298 | 0.0 | 0.0 | 0.00 | 0.00 | 0.00 | 88 | 1015.0 |
| 20260506114058 | 17 | 298 | 0.0 | 1.6 | 0.00 | 0.00 | 0.00 | 87 | 1015.1 |
| 20260506113557 | 17 | 298 | 0.0 | 1.6 | 0.00 | 0.00 | 0.00 | 87 | 1015.2 |
| 20260506113058 | 17 | 298 | 0.0 | 3.2 | 0.00 | 0.00 | 0.00 | 87 | 1015.2 |
| 20260506112559 | 17 | 298 | 0.0 | 3.2 | 0.00 | 0.00 | 0.00 | 87 | 1015.2 |
| 20260506112056 | 17 | 298 | 0.0 | 3.2 | 0.00 | 0.00 | 0.00 | 88 | 1015.2 |
| 20260506111557 | 17 | 309 | 0.0 | 3.2 | 0.00 | 0.00 | 0.00 | 88 | 1015.3 |
| 20260506111055 | 17 | 310 | 0.0 | 1.6 | 0.00 | 0.00 | 0.00 | 88 | 1015.4 |
| 20260506110555 | 17 | 310 | 0.0 | 0.0 | 0.00 | 0.00 | 0.00 | 88 | 1015.5 |
| 20260506110055 | 17 | 310 | 0.0 | 0.0 | 0.00 | 0.00 | 0.00 | 88 | 1015.5 |
| 20260506105558 | 17 | 310 | 0.0 | 1.6 | 0.00 | 0.00 | 0.00 | 88 | 1015.6 |
| 20260506105054 | 17 | 310 | 0.0 | 3.2 | 0.00 | 0.00 | 0.00 | 87 | 1015.7 |
| 20260506104554 | 17 | 310 | 0.0 | 3.2 | 0.00 | 0.00 | 0.00 | 87 | 1015.6 |
| 20260506104054 | 17 | 305 | 0.0 | 6.4 | 0.00 | 0.00 | 0.00 | 87 | 1015.7 |
| 20260506103554 | 17 | 305 | 1.6 | 6.4 | 0.00 | 0.00 | 0.00 | 86 | 1015.7 |
| 20260506103054 | 17 | 9 | 0.0 | 3.2 | 0.00 | 0.00 | 0.00 | 86 | 1015.8 |
| 20260506102554 | 17 | 103 | 1.6 | 3.2 | 0.00 | 0.00 | 0.00 | 86 | 1015.8 |
| 20260506102055 | 17 | 103 | 0.0 | 0.0 | 0.00 | 0.00 | 0.00 | 86 | 1015.8 |
| 20260506101554 | 17 | 103 | 0.0 | 0.0 | 0.00 | 0.00 | 0.00 | 86 | 1015.8 |
| 20260506101054 | 17 | 103 | 0.0 | 1.6 | 0.00 | 0.00 | 0.00 | 86 | 1015.8 |
| 20260506100553 | 17 | 103 | 0.0 | 3.2 | 0.00 | 0.00 | 0.00 | 86 | 1015.8 |
| 20260506100053 | 17 | 103 | 1.6 | 3.2 | 0.00 | 0.00 | 0.00 | 86 | 1015.8 |
| 20260506095554 | 17 | 103 | 0.0 | 3.2 | 0.00 | 0.00 | 0.00 | 86 | 1015.8 |
| 20260506095053 | 17 | 103 | 0.0 | 1.6 | 0.00 | 0.00 | 0.00 | 86 | 1015.8 |
| 20260506094553 | 17 | 103 | 0.0 | 0.0 | 0.00 | 0.00 | 0.00 | 86 | 1015.8 |
| 20260506094052 | 17 | 103 | 0.0 | 0.0 | 0.00 | 0.00 | 0.00 | 86 | 1015.8 |
| 20260506093554 | 17 | 103 | 0.0 | 0.0 | 0.00 | 0.00 | 0.00 | 85 | 1015.7 |
| 20260506093108 | 17 | 103 | 0.0 | 0.0 | 0.00 | 0.00 | 0.00 | 85 | 1015.8 |
| 20260506092552 | 17 | 103 | 0.0 | 0.0 | 0.00 | 0.00 | 0.00 | 85 | 1015.8 |
| 20260506092053 | 17 | 103 | 0.0 | 0.0 | 0.00 | 0.00 | 0.00 | 85 | 1015.7 |
| 20260506091551 | 17 | 103 | 0.0 | 0.0 | 0.00 | 0.00 | 0.00 | 85 | 1015.7 |
| 20260506091050 | 17 | 103 | 0.0 | 0.0 | 0.00 | 0.00 | 0.00 | 86 | 1015.8 |
| 20260506090550 | 17 | 103 | 0.0 | 0.0 | 0.00 | 0.00 | 0.00 | 86 | 1015.7 |
| 20260506090057 | 17 | 103 | 0.0 | 1.6 | 0.00 | 0.00 | 0.00 | 86 | 1015.7 |
| 20260506085551 | 17 | 103 | 0.0 | 3.2 | 0.00 | 0.00 | 0.00 | 86 | 1015.8 |
| 20260506085051 | 17 | 103 | 0.0 | 3.2 | 0.00 | 0.00 | 0.00 | 86 | 1015.8 |
| 20260506084551 | 17 | 103 | 0.0 | 0.0 | 0.00 | 0.00 | 0.00 | 86 | 1015.8 |
| 20260506084051 | 17 | 103 | 0.0 | 0.0 | 0.00 | 0.00 | 0.00 | 86 | 1015.8 |
| 20260506083550 | 17 | 103 | 0.0 | 0.0 | 0.00 | 0.00 | 0.00 | 86 | 1015.8 |
| 20260506083052 | 17 | 103 | 0.0 | 0.0 | 0.00 | 0.00 | 0.00 | 86 | 1015.7 |
| 20260506082554 | 17 | 103 | 0.0 | 0.0 | 0.00 | 0.00 | 0.00 | 86 | 1015.7 |
| 20260506082050 | 17 | 103 | 0.0 | 0.0 | 0.00 | 0.00 | 0.00 | 86 | 1015.7 |
| 20260506081550 | 17 | 103 | 0.0 | 0.0 | 0.00 | 0.00 | 0.00 | 86 | 1015.7 |
| 20260506081049 | 17 | 103 | 0.0 | 0.0 | 0.00 | 0.00 | 0.00 | 86 | 1015.7 |
| 20260506080549 | 17 | 103 | 0.0 | 0.0 | 0.00 | 0.00 | 0.00 | 86 | 1015.7 |
| 20260506073053 | 18 | 103 | 0.0 | 0.0 | 0.00 | 0.00 | 0.00 | 84 | 1015.4 |
| 20260506072551 | 18 | 103 | 0.0 | 0.0 | 0.00 | 0.00 | 0.00 | 84 | 1015.5 |
| 20260506072052 | 18 | 103 | 0.0 | 1.6 | 0.00 | 0.00 | 0.00 | 83 | 1015.5 |
| 20260506071547 | 18 | 103 | 0.0 | 1.6 | 0.00 | 0.00 | 0.00 | 83 | 1015.5 |
| 20260506071047 | 18 | 103 | 0.0 | 0.0 | 0.00 | 0.00 | 0.00 | 83 | 1015.4 |
| 20260506070546 | 18 | 103 | 0.0 | 1.6 | 0.00 | 0.00 | 0.00 | 82 | 1015.4 |
| 20260506062045 | 19 | 92 | 1.6 | 9.7 | 0.00 | 0.00 | 0.00 | 79 | 1015.4 |
| 20260506061557 | 19 | 84 | 3.2 | 9.7 | 0.00 | 0.00 | 0.00 | 79 | 1015.5 |
| 20260506061044 | 19 | 81 | 1.6 | 9.7 | 0.00 | 0.00 | 0.00 | 78 | 1015.5 |
| 20260506060545 | 20 | 82 | 1.6 | 4.8 | 0.00 | 0.00 | 0.00 | 78 | 1015.6 |